Location: Izdebno
(52.6670°N, 16.2170°E)
Time: 10:07:55
(UTC+02:00)

A-11 Canister half - Pass Details

Date: 01 March 2024
Orbit: 1513 x 1686 km, 47.2° (Epoch: 24 April)

Event Time Altitude Azimuth Distance (km) Brightness Sun altitude
Exits shadow 05:46:55 10° 277° (W) 3,921 10.5 -9.0°
Maximum altitude 05:56:12 45° 209° (SSW) 2,107 9.6 -7.6°
Drops below altitude 10° 06:05:13 10° 141° (SE) 3,796 11.8 -6.2°
Sets 06:08:25 0° 135° (SE) 4,755 12.4 -5.7°
